Retour au catalogue

DELTA 1 R/B

ActifHEO
NORAD 3315·ROCKET BODY·🇺🇸 United States

Lancé Jul 4, 1968 depuis Vandenberg Space Force Base

Loading…

Prochains Passages (prochaines 24 heures)

TLE

FraisSource: Space-Track

Époque: Sep 14, 2026, 04:03 UTC

1 03315U 68055B   26257.16934694  .00000110  00000-0  34900-3 0  9991
2 03315 120.6672 351.9663 2628195 286.6519  72.0359  9.25767284949795

Suivez DELTA 1 R/B en temps réel avec AllMySat

Download on the App Store